Hourly Data Report for February 08, 2015

All times are specified in Local Standard Time (LST). Add 1 hour to adjust for Daylight Saving Time where and when it is observed.

GERALDTON A
ONTARIO

49°46'58.090" N
86°55'50.050" W
348.40 m
6042716
71834
YGQ

Download Data

Hourly Data (February 2015)
Hourly Data Report for February 8, 2015
Temp Definition
°C
Dew Point Temp Definition
°C
Rel Hum Definition
%
Wind Dir Definition
10's deg

Wind Spd Definition
km/h
Visibility Definition
km
Stn Press Definition
kPa
Hmdx Definition


Wind Chill Definition


Weather Definition


TIME
00:00 -25.5 -29.2 71 7 26 16.1 97.62   -39 Snow
01:00 -25.8 -29.3 72 5 17 19.3 97.66   -37 Snow
02:00 -26.1 -29.7 72 7 22 24.1 97.62   -39 Snow
03:00 -26.6 -30.1 72 6 19 16.1 97.69   -39 Snow
04:00 -27.1 -30.8 71 6 22 4.8 97.74   -40 Snow
05:00 -27.1 -30.6 72 5 19 11.3 97.79   -39 Snow
06:00 -27.5 -31.0 72 6 19 24.1 97.78   -40 Snow
07:00 -27.9 -31.1 74 6 20 24.1 97.82   -40 Snow
08:00 -28.6 -31.7 75 6 15 24.1 97.91   -40 Snow
09:00 -28.5 -31.7 74 5 13 24.1 97.97   -39 Mainly Clear
10:00 -27.2 -31.0 70 6 17 24.1 98.05   -39 Clear
11:00 -25.3 -29.9 65 6 15 24.1 98.08   -36 Clear
12:00 -22.8 -28.4 60 7 17 24.1 98.08   -33 Clear
13:00 -20.9 -27.3 56 5 17 24.1 98.06   -31 Clear
14:00 -19.6 -26.5 54 7 15 24.1 98.04   -29 Clear
15:00 -18.5 -26.4 50 7 17 24.1 98.07   -28 Clear
16:00 -18.3 -26.2 50 7 17 24.1 98.09   -28 Clear
17:00 -18.5 -26.0 52 4 15 24.1 98.13   -27 Clear
18:00 -19.9 -25.7 60 5 9 24.1 98.19   -27 Clear
19:00 -21.0 -26.1 64 4 13 24.1 98.27   -30 Clear
20:00 -22.3 -26.7 67 5 15 24.1 98.32   -32 Clear
21:00 -23.7 -27.7 70 8 11 24.1 98.30   -32 Clear
22:00 -24.8 -28.3 73 7 7 24.1 98.34   -31 Clear
23:00 -25.4 -28.5 75 5 4 24.1 98.31   -29 Clear

Notes on Data Quality.

Legend

  • E = Estimated
  • M = Missing
  • NA = Not Available
  • ‡ = Partner data that is not subject to review by the National Climate Archives
Date modified: